Saint Charles, IL

6:37 AM CST on December 04, 2016 (GMT -0600)
Du Page

Weather History for KDPA - June, 2013

Change the Weather History Date:

Friday, June 14, 2013

  Actual Average Record
Temperature  
Mean Temperature 64 °F 70 °F  
Max Temperature 78 °F 81 °F 90 °F (2007)
Min Temperature 50 °F 58 °F 44 °F (1997)
Degree Days  
Heating Degree Days 1 1  
Month to date heating degree days 49 28  
Since 1 June heating degree days 49 28  
Since 1 July heating degree days 6578 6307  
Cooling Degree Days 0 6  
Month to date cooling degree days 30 60  
Year to date cooling degree days 107 106  
Since 1 June cooling degree days 30 60  
Growing Degree Days 14 (Base 50)    
Moisture  
Dew Point 52 °F    
Average Humidity 65    
Maximum Humidity 89    
Minimum Humidity 42    
Precipitation  
Precipitation 0.00 in 0.14 in 0.43 in (2016)
Month to date precipitation 1.41 2.37  
Year to date precipitation 18.70 15.39  
Sea Level Pressure  
Sea Level Pressure 30.07 in    
Wind  
Wind Speed 6 mph (ENE)    
Max Wind Speed 15 mph    
Max Gust Speed 18 mph    
Visibility 10 miles    
Events      
T = Trace of Precipitation, MM = Missing Value Source: NWS Daily Summary

Daily Weather History Graph

Daily Weather History Graph

Search for Another Location

Airport or City:

Trip Planner

Search our weather history database for the weather conditions in past years. The results will help you decide how hot, cold, wet, or windy it might be!

Date:

Astronomy

Jun. 14, 2013 Rise Set
Actual Time 5:17 AM CDT 8:29 PM CDT
Civil Twilight 4:42 AM CDT 9:04 PM CDT
Nautical Twilight 3:58 AM CDT 9:48 PM CDT
Astronomical Twilight 3:05 AM CDT 10:41 PM CDT
Moon 10:56 AM CDT (6/14) No Moon Set
Length of Visible Light 16h 21m
Length of Day
15h 12m
Waxing Crescent, 30% of the Moon is Illuminated
Jun 14
Waxing Crescent
Jun 16
First Quarter
Jun 23
Full
Jun 29
Last Quarter
Jul 8
New

Hourly Weather History & Observations

Time (CDT) Temp. Dew Point Humidity Pressure Visibility Wind Dir Wind Speed Gust Speed Precip Events Conditions
12:52 AM 57.0 °F 50.0 °F 77% 30.04 in 10.0 mi NE 9.2 mph - N/A   Clear
1:52 AM 55.9 °F 50.0 °F 80% 30.05 in 10.0 mi NNE 9.2 mph - N/A   Clear
2:52 AM 53.1 °F 50.0 °F 89% 30.05 in 10.0 mi North 6.9 mph - N/A   Clear
3:52 AM 52.0 °F 48.9 °F 89% 30.06 in 10.0 mi North 4.6 mph - N/A   Clear
4:52 AM 51.1 °F 48.0 °F 89% 30.07 in 10.0 mi North 5.8 mph - N/A   Clear
5:52 AM 52.0 °F 48.9 °F 89% 30.08 in 10.0 mi NNE 6.9 mph - N/A   Clear
6:52 AM 55.9 °F 51.1 °F 84% 30.09 in 10.0 mi NE 8.1 mph - N/A   Clear
7:52 AM 61.0 °F 52.0 °F 72% 30.10 in 10.0 mi NNE 6.9 mph - N/A   Clear
8:52 AM 64.0 °F 53.1 °F 67% 30.14 in 10.0 mi Calm Calm - N/A   Clear
9:52 AM 66.9 °F 54.0 °F 63% 30.13 in 10.0 mi NNE 4.6 mph - N/A   Clear
10:52 AM 69.1 °F 55.0 °F 61% 30.11 in 10.0 mi ENE 6.9 mph - N/A   Clear
11:52 AM 72.0 °F 55.9 °F 57% 30.09 in 10.0 mi ENE 11.5 mph - N/A   Clear
12:52 PM 73.0 °F 55.0 °F 53% 30.11 in 10.0 mi NE 6.9 mph - N/A   Clear
1:52 PM 75.0 °F 53.1 °F 46% 30.10 in 10.0 mi East 10.4 mph - N/A   Clear
2:52 PM 75.9 °F 55.0 °F 48% 30.09 in 10.0 mi Calm Calm - N/A   Clear
3:52 PM 78.1 °F 53.1 °F 42% 30.06 in 10.0 mi Calm Calm - N/A   Clear
4:52 PM 77.0 °F 52.0 °F 42% 30.04 in 10.0 mi ESE 4.6 mph - N/A   Clear
5:52 PM 75.9 °F 53.1 °F 45% 30.02 in 10.0 mi East 6.9 mph - N/A   Clear
6:52 PM 72.0 °F 52.0 °F 49% 30.01 in 10.0 mi East 13.8 mph - N/A   Clear
7:52 PM 68.0 °F 51.1 °F 55% 30.03 in 10.0 mi East 9.2 mph - N/A   Clear
8:52 PM 64.9 °F 51.1 °F 61% 30.04 in 10.0 mi East 6.9 mph - N/A   Clear
9:52 PM 62.1 °F 51.1 °F 67% 30.04 in 10.0 mi East 4.6 mph - N/A   Clear
10:52 PM 61.0 °F 50.0 °F 67% 30.04 in 10.0 mi East 3.5 mph - N/A   Clear
11:52 PM 59.0 °F 50.0 °F 72% 30.02 in 10.0 mi East 3.5 mph - N/A   Clear